Home > Weather > Lubango > Past weeks

Flag for Angola Past Weather in Lubango, Angola — Yesterday and Last 2 Weeks

Now
79 °F

Partly sunny.


Feels Like: 80 °F
Forecast: 33 / 73 °F
Wind: 9 mph from West

Location: Luanda Airport

Current Time: Jul 24, 2016 at 3:55:58 PM

Latest Report: Jul 24, 2016 at 2:00 PM


Visibility: N/A

Pressure: 29.92 "Hg (24.46 "Hg at 1765m altitude)

Humidity: 51%

Dew Point: 59 °F

Location of LubangoLocation

Past Weather in Lubango — Graph

°F

Lubango Temperature Yesterday

Maximum temperature yesterday: 77 °F (at 2:00 PM)
Minimum temperature yesterday: 64 °F (at 3:00 AM)
Average temperature yesterday: 70 °F

High & Low Weather Summary for the Past Weeks

 TemperatureHumidityPressure
High81 °F (Jul 10, 11:00 AM)100% (Jul 9, 10:00 PM)30.07 "Hg (Jul 9, 10:00 PM)
Low64 °F (Jul 15, 5:00 AM)51% (Jul 24, 2:00 PM)29.80 "Hg (Jul 16, 4:00 PM)
Average72 °F79%29.95 "Hg
* Reported Jul 9 2:00 PM — Jul 24 2:00 PM, Lubango, Weather by CustomWeather, © 2016

Note: Actual official high and low records may vary slightly from our data, if they occured in-between our weather recording intervals... More about our weather records

Advertising

Lubango Weather History for the Previous 24 Hours

Scroll right to see more
 ConditionsComfort  
Time TempWeatherWind HumidityBarometerVisibility
2:00 PM
Sun, Jul 24
79 °FPartly sunny.9 mph51%29.92 "HgN/A
12:00 PM75 °FPartly sunny.5 mph69%29.98 "HgN/A
11:00 AM73 °FPartly sunny.5 mph69%29.98 "Hg4 mi
10:00 AM72 °FPartly sunny.5 mph78%30.01 "Hg4 mi
9:00 AM70 °FPartly sunny.5 mph78%29.98 "Hg4 mi
8:00 AM70 °FFog.5 mph83%29.98 "Hg3 mi
7:00 AM68 °FFog.5 mph83%29.98 "Hg2 mi
6:00 AM70 °FPassing clouds.5 mph78%29.95 "Hg5 mi
5:00 AM70 °FPassing clouds.2 mph78%29.95 "Hg4 mi
4:00 AM70 °FPassing clouds.No wind78%29.92 "Hg4 mi
3:00 AM68 °FPassing clouds.No wind88%29.92 "Hg4 mi
2:00 AM68 °FPassing clouds.No wind88%29.95 "Hg5 mi
1:00 AM68 °FPassing clouds.No wind88%29.95 "Hg5 mi
12:00 AM66 °FPassing clouds.2 mph88%29.95 "Hg5 mi
11:00 PM
Sat, Jul 23
66 °FPassing clouds.5 mph88%29.95 "Hg5 mi
10:00 PM68 °FPassing clouds.5 mph83%29.95 "Hg5 mi
9:00 PM70 °FPassing clouds.5 mph83%29.95 "Hg5 mi
8:00 PM70 °FPassing clouds.7 mph83%29.92 "Hg5 mi
7:00 PM72 °FClear.8 mph73%29.89 "Hg5 mi
6:00 PM72 °FClear.7 mph78%29.86 "Hg5 mi
5:00 PM73 °FSunny.9 mph74%29.86 "Hg10 mi
4:00 PM73 °FSunny.10 mph74%29.86 "Hg10 mi
3:00 PM75 °FPassing clouds.10 mph69%29.86 "HgN/A
Weather by CustomWeather, © 2016

See weather overviewHow to use our weather pages